Temperature
15 15 15 15 15 15 15 15 15 15 15 15 15 15 15 16 15 15 15 15 15 15 15 15 15 15 15 15 15 15 15 15 14 14 14 14 14 14
15 15 15 15 15 15 15 15 15 15 15 15 15 15 15 15 15 15 15 15 15 15 15 15 15 14 14 14 14 14 14 14 14 14 14 14 14 14
14 14 14 14 14 14 15 15 15 15 15 15 15 15 15 15 15 15 14 14 14 14 14 14 14 14 14 14 14 14 14 14 14 14 14 14 14 13
14 14 14 14 14 14 14 14 14 14 14 15 14 14 14 14 14 14 14 14 14 14 14 14 14 14 14 14 14 13 13 13 13 13 13 13 13 13
14 14 14 14 14 14 14 14 14 14 14 14 14 14 14 14 14 14 14 14 13 13 13 13 13 13 13 13 13 13 13 13 13 13 13 13 13 13
13 13 13 13 14 14 14 14 14 14 14 14 14 14 14 14 14 13 13 13 13 13 13 13 13 13 13 13 12 13 13 13 13 12 12 12 12 12
13 13 13 13 13 13 13 14 14 14 14 14 14 13 13 13 13 13 13 13 12 12 12 12 12 12 12 12 12 12 12 12 12 12 12 12 12 12
13 13 13 13 13 13 13 13 13 13 13 13 13 13 13 13 13 13 13 13 12 12 12 12 12 12 12 12 12 12 12 12 12 12 11 11 11 11
12 13 13 13 13 13 13 13 13 13 13 13 13 13 13 13 13 13 13 13 12 12 12 11 11 11 11 11 11 11 11 11 11 11 11 11 11 10
12 12 12 12 12 13 13 13 13 13 13 13 13 13 13 13 13 13 13 12 12 11 11 11 11 11 10 11 10 10 10 10 10 10 10 10 10 10
12 12 12 12 12 12 12 12 12 12 12 12 12 13 13 13 13 12 12 12 12 11 11 11 10 10 10 10 10 10 10 10 10 10 10 10 10 9
12 12 12 12 12 12 12 12 12 12 12 12 12 12 12 12 12 12 12 12 12 11 11 11 10 10 10 9 9 9 9 9 9 9 9 9 9 9
12 12 12 12 12 12 12 12 12 12 12 12 12 12 12 12 12 12 12 12 12 12 11 11 11 10 10 9 9 9 9 9 9 9 9 8 8 8
11 11 11 11 11 11 11 11 11 11 12 12 12 12 11 11 11 11 11 11 11 11 11 11 11 11 10 10 9 9 8 8 8 8 8 8 8 8
11 11 11 11 11 11 11 11 11 11 11 11 11 11 11 11 11 11 11 11 11 11 11 11 11 10 10 10 10 9 8 8 8 8 8 8 7 7
11 11 11 11 11 11 11 11 11 11 11 11 11 11 11 10 10 10 11 10 10 10 10 10 10 10 10 10 9 9 8 8 8 7 7 7 7 7
11 11 11 11 11 11 11 11 11 11 11 11 11 10 10 10 10 10 10 10 10 10 10 10 9 9 9 9 9 8 8 8 8 7 7 7 7 7
10 11 10 10 10 10 10 10 10 10 10 10 10 10 10 10 10 10 10 10 10 9 9 9 9 9 9 8 8 8 8 8 7 7 7 7 7 7
10 10 10 10 10 10 10 10 10 10 10 10 10 9 9 9 9 9 9 9 9 9 9 8 8 8 8 8 8 8 8 7 7 7 7 7 7 7
10 10 10 10 10 10 10 10 9 9 9 9 9 9 9 9 9 9 9 9 9 8 8 8 8 8 8 8 8 8 7 7 7 7 7 7 7 7
10 10 10 10 10 10 10 9 9 9 9 9 9 9 9 9 9 9 9 8 8 8 8 8 8 8 8 8 8 7 7 7 7 7 7 7 7 7
10 10 10 10 10 10 10 9 9 9 9 9 9 9 9 9 9 9 8 8 8 8 8 8 8 7 7 7 7 7 7 7 7 7 7 7 7 7
11 11 11 10 10 10 10 10 9 9 9 9 9 9 9 9 8 8 8 8 8 8 8 8 7 7 7 7 7 7 7 7 6 6 6 6 6 6
Wind_Speed
5 6 5 4 4 4 4 4 5 4 3 3 2 2 4 6 7 9 9 12 14 14 14 12 11 9 9 7 7 6 6 5 4 4 3 4 3 3
4 5 4 4 4 4 4 3 4 4 3 3 2 2 3 5 7 8 8 10 12 13 12 11 10 9 8 7 6 6 6 5 4 3 3 3 3 3
3 4 4 4 4 4 4 4 3 3 3 2 1 2 3 5 5 6 6 6 7 10 11 10 9 9 8 8 7 6 6 5 4 3 2 3 3 3
3 3 3 4 4 4 4 4 4 4 4 4 2 2 2 5 5 5 5 6 6 7 9 9 9 8 8 7 7 6 6 5 4 3 2 2 1 1
2 2 2 3 3 3 4 4 4 4 3 4 3 2 2 4 5 5 5 4 6 8 9 9 9 8 8 8 8 7 6 5 4 3 2 2 1 1
3 2 2 2 3 3 3 4 4 4 4 4 4 3 3 4 5 5 5 4 4 6 9 10 10 10 10 9 9 8 8 7 6 5 4 3 3 3
4 3 2 2 3 3 3 4 4 4 4 4 4 3 3 5 5 4 6 6 5 4 6 6 8 8 8 8 8 8 8 8 7 6 6 6 6 5
5 4 3 3 3 4 5 6 6 6 5 4 3 5 4 4 5 6 7 5 3 3 5 5 5 5 7 8 9 10 9 8 8 7 7 7 7 7
5 4 4 4 5 5 6 7 7 7 6 5 5 5 5 5 7 7 6 5 4 5 5 4 4 5 6 8 10 11 10 9 8 7 7 7 8 7
6 5 5 4 5 6 7 7 6 5 5 4 4 4 5 6 6 6 7 7 6 4 3 4 3 3 4 7 9 10 10 9 8 7 8 8 8 8
7 6 6 6 9 9 8 8 8 6 8 11 10 9 10 11 10 8 7 8 5 2 2 3 3 3 2 3 6 8 9 9 8 8 8 8 9 9
6 7 9 9 9 8 7 7 7 5 6 7 8 9 9 9 9 7 7 8 5 3 2 3 4 3 3 1 2 4 6 7 8 9 8 8 8 9
5 5 5 10 10 10 8 6 6 6 6 7 7 7 6 5 5 5 5 6 5 3 4 4 4 3 3 3 1 1 2 3 5 7 9 9 9 8
4 4 4 9 10 10 7 8 10 8 6 6 6 5 5 5 5 6 9 9 7 4 5 5 4 4 4 3 2 1 1 2 3 3 5 8 9 8
4 6 8 9 9 7 9 10 8 6 5 6 5 4 3 3 4 5 7 9 11 11 7 4 5 5 4 4 4 3 2 1 1 2 2 2 1 2
4 6 9 10 8 8 7 6 5 4 5 5 4 3 3 3 4 3 4 4 5 5 10 11 8 6 4 4 4 3 2 2 1 1 2 1 1 1
3 4 5 4 5 5 4 5 4 4 4 3 4 4 4 4 3 3 3 3 4 3 3 5 11 13 8 5 4 3 3 2 2 2 2 1 1 2
5 4 3 3 3 3 3 3 3 3 3 3 3 3 3 4 3 3 3 4 4 3 3 2 3 4 4 5 4 3 2 1 1 2 2 2 2 3
4 2 2 2 2 2 2 2 1 1 2 3 3 3 4 4 4 4 4 4 3 3 2 1 2 3 3 1 2 1 3 2 2 1 1 2 3 3
2 2 2 2 2 2 2 2 1 2 2 2 3 3 3 4 4 4 4 4 3 3 2 1 1 3 4 4 3 1 1 3 3 2 1 1 2 3
2 2 2 2 2 2 2 2 2 2 2 2 2 3 3 4 3 4 4 5 4 3 3 2 1 3 3 4 3 1 2 2 4 4 3 2 1 2
4 4 3 3 3 3 3 3 2 2 2 2 2 3 3 4 4 5 4 4 3 3 3 2 2 3 2 3 3 2 2 2 2 4 6 7 5 4
5 5 4 4 4 3 3 3 4 3 3 3 3 3 3 3 3 4 4 4 4 4 3 3 2 1 1 2 3 2 2 2 1 2 4 8 12 13
Wind_Direction
195 190 191 195 184 175 164 162 159 177 211 211 190 195 177 174 182 183 188 197 199 200 200 199 197 195 197 196 196 193 187 182 186 197 214 224 226 231
187 182 186 184 177 173 171 168 163 164 187 205 192 178 169 161 163 170 182 194 198 197 194 192 189 185 187 182 177 175 172 171 178 185 196 202 211 227
167 172 181 178 174 174 168 165 169 161 173 192 172 156 155 150 145 153 162 166 177 181 179 177 173 169 170 168 166 165 162 161 164 166 181 196 208 216
152 154 169 171 170 175 176 175 177 173 169 177 170 165 161 161 150 147 143 148 143 150 158 157 152 151 150 152 150 149 151 146 145 143 149 162 182 225
119 131 154 153 170 177 180 179 177 176 164 162 168 158 137 146 136 132 130 122 135 134 134 134 134 135 137 134 131 130 131 128 124 121 119 113 112 112
82 97 118 145 170 171 172 172 169 166 160 156 152 143 137 140 137 138 128 115 117 117 109 106 108 105 107 110 114 115 115 116 113 109 104 99 96 96
65 65 71 101 142 155 163 168 159 155 152 153 150 141 140 145 146 138 129 116 94 99 103 92 89 82 82 88 94 101 105 104 102 100 98 96 95 95
63 52 54 59 88 115 128 133 145 149 151 147 148 153 154 146 136 138 136 132 121 116 103 90 79 80 71 81 90 92 92 92 94 94 96 98 95 90
49 47 54 58 68 85 94 93 90 104 125 142 151 158 156 157 147 144 142 131 123 137 112 95 77 78 69 77 89 91 88 86 86 90 96 98 94 90
45 47 59 53 72 90 91 81 73 70 88 102 124 139 146 148 147 142 133 108 97 101 101 108 99 82 68 67 82 90 90 86 86 93 99 98 95 92
43 45 55 62 75 88 95 93 83 70 72 82 87 96 111 124 129 125 126 129 126 121 84 110 125 107 81 57 67 80 85 82 82 90 101 102 98 92
39 40 49 61 67 74 92 100 96 84 84 77 71 73 82 95 110 130 143 143 133 137 135 115 140 137 122 87 64 68 73 73 76 81 92 104 104 94
49 36 39 57 65 70 79 89 100 98 90 87 81 75 72 72 72 84 109 137 136 139 159 133 140 138 127 133 124 74 74 67 71 73 83 92 98 102
53 32 41 59 67 70 79 92 92 91 89 89 87 82 80 76 72 79 83 79 79 108 150 146 139 149 136 134 145 126 77 76 89 82 83 86 83 86
51 55 60 62 63 66 80 88 89 91 96 96 97 89 81 86 83 78 71 74 67 59 65 102 127 133 129 139 144 142 137 101 105 120 104 90 85 86
43 47 54 59 63 63 68 70 71 90 104 106 103 91 83 83 83 86 87 77 70 41 37 57 94 114 112 107 125 134 142 158 151 127 119 93 66 114
55 53 49 51 57 56 58 62 66 75 83 90 102 102 97 96 87 80 87 81 90 90 50 39 66 76 76 103 110 118 128 133 158 151 130 118 303 258
80 71 67 69 75 79 83 74 68 82 90 103 108 111 111 109 99 86 91 105 112 114 109 97 83 67 57 44 55 130 133 153 157 145 145 159 264 268
87 96 105 109 104 97 98 100 96 90 105 114 121 125 125 120 116 117 116 112 112 113 112 114 113 117 124 169 342 65 157 167 152 157 186 189 223 254
114 147 156 151 141 135 129 123 114 102 104 116 127 132 134 132 132 137 141 141 136 126 114 94 134 157 170 179 184 239 165 168 170 190 213 221 270 299
193 192 190 179 172 166 159 149 143 141 142 138 140 145 145 137 141 149 150 152 144 147 161 185 190 132 112 97 96 292 282 220 203 189 181 174 252 304
204 200 201 195 185 177 171 162 154 152 151 153 159 159 154 151 156 158 158 159 167 170 174 171 134 121 119 147 179 207 254 287 266 236 224 211 182 205
208 204 200 196 191 182 175 176 174 179 184 178 171 168 159 157 164 164 167 165 160 162 159 158 144 130 151 167 177 197 220 243 281 306 281 251 242 249
Height
1497 1499 1501 1503 1507 1509 1512 1515 1518 1519 1521 1523 1525 1527 1529 1531 1533 1535 1537 1539 1542 1544 1546 1547 1548 1550 1551 1552 1553 1554 1555 1556 1556 1556 1556 1556 1556 1556
1493 1495 1497 1500 1502 1505 1508 1510 1513 1516 1517 1519 1522 1524 1526 1528 1530 1532 1534 1536 1538 1540 1542 1544 1545 1547 1548 1549 1550 1551 1552 1553 1553 1554 1554 1554 1553 1553
1491 1492 1494 1496 1499 1501 1504 1507 1509 1512 1514 1517 1519 1521 1523 1525 1527 1529 1531 1533 1535 1537 1539 1540 1542 1543 1545 1546 1547 1548 1549 1550 1551 1551 1551 1551 1551 1551
1488 1490 1492 1494 1496 1498 1501 1503 1506 1508 1511 1513 1516 1518 1520 1522 1524 1526 1528 1530 1532 1534 1536 1537 1539 1540 1541 1543 1544 1546 1547 1547 1548 1548 1548 1548 1548 1548
1487 1489 1491 1492 1494 1496 1498 1500 1503 1505 1508 1510 1513 1515 1517 1520 1522 1524 1526 1528 1530 1532 1533 1535 1537 1538 1539 1540 1542 1543 1544 1545 1545 1546 1546 1546 1546 1545
1487 1489 1490 1491 1493 1494 1496 1498 1500 1503 1505 1508 1510 1512 1515 1517 1520 1522 1524 1527 1529 1530 1532 1533 1535 1536 1538 1539 1540 1541 1542 1543 1543 1544 1543 1543 1543 1543
1488 1489 1490 1491 1492 1493 1495 1496 1498 1500 1503 1505 1507 1510 1512 1514 1517 1519 1522 1524 1527 1529 1530 1532 1534 1535 1537 1538 1539 1540 1541 1541 1541 1541 1542 1541 1541 1541
1488 1489 1489 1490 1491 1493 1494 1496 1497 1499 1501 1503 1505 1507 1510 1512 1515 1517 1520 1523 1525 1528 1530 1532 1534 1535 1536 1537 1538 1539 1540 1540 1540 1540 1540 1540 1539 1539
1489 1489 1490 1490 1491 1493 1494 1495 1497 1498 1501 1502 1504 1506 1509 1511 1513 1516 1519 1522 1524 1527 1530 1531 1533 1535 1536 1537 1538 1538 1538 1539 1539 1539 1538 1538 1538 1537
1491 1491 1491 1492 1493 1494 1495 1496 1497 1499 1501 1503 1505 1507 1509 1512 1514 1516 1519 1521 1524 1527 1530 1531 1533 1535 1536 1537 1538 1538 1538 1538 1538 1538 1538 1537 1537 1536
1494 1494 1494 1494 1495 1496 1497 1497 1498 1500 1502 1504 1506 1507 1510 1512 1514 1516 1519 1521 1524 1527 1529 1531 1533 1534 1536 1537 1537 1537 1538 1538 1538 1537 1537 1536 1536 1535
1497 1497 1497 1497 1497 1498 1499 1500 1500 1502 1503 1505 1507 1509 1511 1513 1515 1517 1519 1521 1523 1526 1528 1530 1532 1534 1536 1537 1537 1537 1537 1538 1537 1537 1536 1536 1535 1535
1500 1500 1500 1501 1501 1501 1502 1502 1503 1504 1506 1507 1509 1511 1513 1514 1516 1518 1520 1522 1524 1526 1528 1530 1531 1533 1534 1536 1537 1537 1537 1537 1537 1536 1536 1536 1535 1535
1503 1503 1503 1503 1504 1504 1505 1505 1506 1507 1508 1509 1511 1512 1514 1515 1517 1518 1520 1522 1524 1526 1527 1529 1530 1532 1533 1534 1536 1536 1537 1537 1537 1536 1536 1535 1535 1535
1505 1505 1506 1506 1506 1507 1507 1508 1509 1510 1510 1511 1513 1514 1515 1517 1518 1519 1521 1523 1524 1526 1527 1528 1530 1531 1533 1534 1534 1535 1536 1536 1536 1536 1536 1535 1535 1534
1508 1508 1508 1508 1509 1509 1510 1511 1511 1512 1513 1513 1514 1516 1517 1518 1519 1521 1522 1523 1525 1526 1527 1528 1529 1531 1532 1533 1534 1534 1535 1535 1535 1535 1535 1535 1535 1534
1510 1510 1510 1510 1511 1511 1512 1513 1513 1514 1514 1515 1516 1517 1518 1519 1520 1521 1523 1524 1525 1525 1527 1528 1529 1530 1532 1533 1533 1534 1534 1534 1535 1535 1535 1534 1534 1533
1512 1511 1511 1512 1512 1513 1513 1514 1514 1515 1516 1516 1517 1518 1519 1520 1521 1522 1523 1524 1525 1526 1527 1528 1529 1530 1532 1532 1534 1533 1533 1534 1534 1534 1533 1533 1533 1532
1512 1512 1512 1512 1513 1513 1514 1514 1515 1515 1516 1517 1518 1518 1519 1520 1521 1522 1523 1524 1525 1526 1527 1528 1529 1530 1531 1532 1532 1533 1533 1533 1533 1532 1532 1532 1531 1531
1513 1513 1513 1513 1513 1513 1514 1514 1515 1515 1516 1517 1518 1519 1519 1520 1521 1522 1523 1524 1525 1526 1527 1528 1529 1529 1530 1531 1531 1531 1531 1531 1531 1531 1531 1530 1530 1529
1512 1512 1512 1512 1512 1513 1513 1513 1514 1515 1516 1516 1517 1518 1519 1520 1521 1522 1523 1524 1525 1526 1526 1527 1528 1528 1529 1529 1530 1530 1530 1530 1530 1529 1529 1528 1528 1527
1511 1511 1511 1511 1511 1511 1512 1512 1513 1514 1515 1515 1516 1517 1518 1519 1520 1521 1522 1523 1524 1525 1525 1526 1526 1527 1527 1528 1528 1528 1528 1528 1528 1527 1527 1526 1526 1525
1510 1509 1509 1509 1509 1510 1510 1511 1511 1512 1513 1514 1515 1516 1517 1518 1518 1519 1520 1521 1522 1523 1524 1524 1525 1525 1525 1526 1526 1526 1526 1526 1526 1525 1525 1524 1524 1523